Home > Weather > Xi'an > Past weeks

Flag for China Past Weather in Xi'an, Shaanxi, China — Yesterday and Last 2 Weeks

Now
91 °F

Passing clouds.


Feels Like: 100 °F
Forecast: 77 / 98 °F
Wind: 8 mph from Northeast

Location: Xian/Xianyang

Current Time: Jul 31, 2016 at 5:47:44 PM

Latest Report: Jul 31, 2016 at 5:00 PM


Visibility: N/A

Pressure: 29.71 "Hg

Humidity: 56%

Dew Point: 73 °F

Location of Xi'anLocation

Past Weather in Xi'an — Graph

°F

Xi'an Temperature Yesterday

Maximum temperature yesterday: 91 °F (at 11:00 AM)
Minimum temperature yesterday: 75 °F (at 6:00 AM)
Average temperature yesterday: 83 °F

High & Low Weather Summary for the Past Weeks

 TemperatureHumidityPressure
High100 °F (Jul 28, 5:00 PM)100% (Jul 17, 3:00 AM)29.86 "Hg (Jul 17, 3:00 AM)
Low66 °F (Jul 17, 5:00 AM)30% (Jul 16, 4:00 PM)29.53 "Hg (Jul 18, 6:00 PM)
Average82 °F76%29.67 "Hg
* Reported Jul 16 4:00 PM — Jul 31 4:00 PM, Xi'an, Weather by CustomWeather, © 2016

Note: Actual official high and low records may vary slightly from our data, if they occured in-between our weather recording intervals... More about our weather records

Advertising

Xi'an Weather History for the Previous 24 Hours

Scroll right to see more
 ConditionsComfort  
Time TempWeatherWind HumidityBarometerVisibility
4:00 PM
Sun, Jul 31
91 °FPassing clouds.6 mph56%29.74 "HgN/A
3:00 PM90 °FPassing clouds.6 mph63%29.74 "HgN/A
2:00 PM90 °FPassing clouds.6 mph63%29.77 "HgN/A
1:00 PM90 °FClear.8 mph63%29.77 "Hg5 mi
12:00 PM86 °FClear.3 mph66%29.80 "Hg5 mi
11:00 AM86 °FClear.8 mph70%29.83 "Hg5 mi
10:00 AM82 °FClear.8 mph74%29.83 "Hg5 mi
9:00 AM81 °FClear.13 mph79%29.80 "Hg4 mi
8:00 AM79 °FClear.10 mph84%29.80 "Hg4 mi
7:00 AM75 °FFog.6 mph94%29.77 "Hg2 mi
6:00 AM73 °FFog.3 mph100%29.77 "Hg2 mi
5:00 AM75 °FPassing clouds.6 mph94%29.77 "Hg4 mi
4:00 AM77 °FPassing clouds.13 mph89%29.77 "Hg4 mi
3:00 AM75 °FPassing clouds.8 mph94%29.77 "Hg4 mi
2:00 AM77 °FPassing clouds.10 mph89%29.74 "Hg4 mi
1:00 AM77 °FPassing clouds.10 mph89%29.74 "Hg4 mi
12:00 AM75 °FClear.3 mph94%29.77 "Hg4 mi
11:00 PM
Sat, Jul 30
77 °FClear.6 mph89%29.77 "Hg10 mi
10:00 PM79 °FClear.8 mph84%29.77 "Hg10 mi
9:00 PM81 °FClear.15 mph74%29.74 "Hg10 mi
8:00 PM82 °FScattered clouds.17 mph66%29.74 "HgN/A
7:00 PM84 °FPassing clouds.15 mph66%29.71 "HgN/A
6:00 PM88 °FSunny.1 mph62%29.71 "Hg10 mi
5:00 PM86 °FScattered clouds.3 mph59%29.71 "HgN/A
Weather by CustomWeather, © 2016

See weather overviewHow to use our weather pages